• In Germany
  • List of Countries
  • For 7 days
  • Water Temperature
  • Satellite Maps
  • Weather Map
  • Weather Widgets
  • user-avatar
    Login

    Hourly Weather Artashat

    Today, 20 September, Wednesday

    Time Temperature Precipitation Wind Pressure Humidity
    00:00 +15°C° 0 mm 1 mps 606 mmHg 27%
    01:00 +15°C° 0 mm 1 mps 605 mmHg 28%
    02:00 +14°C° 0 mm 1 mps 605 mmHg 29%
    03:00 +14°C° 0 mm 1 mps 605 mmHg 30%
    04:00 +14°C° 0 mm 1 mps 604 mmHg 31%
    05:00 +13°C° 0 mm 1 mps 604 mmHg 31%
    06:00 +13°C° 0 mm 1 mps 604 mmHg 31%
    07:00 +16°C° 0 mm 1 mps 606 mmHg 27%
    08:00 +20°C° 0 mm 1 mps 607 mmHg 22%
    09:00 +23°C° 0 mm 1 mps 608 mmHg 17%
    10:00 +24°C° 0 mm 1 mps 608 mmHg 16%
    11:00 +25°C° 0 mm 1 mps 609 mmHg 15%
    12:00 +26°C° 0 mm 2 mps 609 mmHg 14%
    13:00 +26°C° 0 mm 2 mps 609 mmHg 14%
    14:00 +27°C° 0 mm 2 mps 609 mmHg 13%
    15:00 +27°C° 0 mm 2 mps 608 mmHg 13%
    16:00 +25°C° 0 mm 2 mps 608 mmHg 15%
    17:00 +24°C° 0 mm 2 mps 607 mmHg 17%
    18:00 +22°C° 0 mm 1 mps 606 mmHg 19%
    19:00 +21°C° 0 mm 1 mps 606 mmHg 21%
    20:00 +20°C° 0 mm 1 mps 606 mmHg 22%
    21:00 +19°C° 0 mm 1 mps 606 mmHg 24%
    22:00 +19°C° 0 mm 1 mps 606 mmHg 25%
    23:00 +18°C° 0 mm 1 mps 605 mmHg 27%

    Tomorrow, 21 September, Thursday

    Time Temperature Precipitation Wind Pressure Humidity
    00:00 +16°C° 0 mm 1 mps 605 mmHg 28%
    01:00 +16°C° 0 mm 1 mps 605 mmHg 29%
    02:00 +15°C° 0 mm 1 mps 605 mmHg 29%
    03:00 +14°C° 0 mm 1 mps 604 mmHg 30%
    04:00 +14°C° 0 mm 1 mps 604 mmHg 30%
    05:00 +13°C° 0 mm 1 mps 604 mmHg 30%
    06:00 +13°C° 0 mm 1 mps 604 mmHg 31%
    07:00 +16°C° 0 mm 1 mps 605 mmHg 27%
    08:00 +20°C° 0 mm 1 mps 606 mmHg 23%
    09:00 +22°C° 0 mm 1 mps 607 mmHg 19%
    10:00 +23°C° 0 mm 1 mps 607 mmHg 18%
    11:00 +24°C° 0 mm 2 mps 607 mmHg 17%
    12:00 +26°C° 0 mm 2 mps 607 mmHg 16%
    13:00 +26°C° 0 mm 2 mps 607 mmHg 16%
    14:00 +26°C° 0 mm 2 mps 607 mmHg 15%
    15:00 +27°C° 0 mm 2 mps 607 mmHg 15%
    16:00 +25°C° 0 mm 2 mps 606 mmHg 17%
    17:00 +24°C° 0 mm 2 mps 606 mmHg 19%
    18:00 +21°C° 0 mm 2 mps 605 mmHg 21%
    19:00 +21°C° 0 mm 2 mps 605 mmHg 22%
    20:00 +21°C° 0 mm 1 mps 605 mmHg 24%
    21:00 +20°C° 0 mm 1 mps 605 mmHg 25%
    22:00 +19°C° 0 mm 1 mps 605 mmHg 27%
    23:00 +18°C° 0 mm 1 mps 604 mmHg 29%

    Day after tomorrow, 22 September, Friday

    Time Temperature Precipitation Wind Pressure Humidity
    00:00 +16°C° 0 mm 1 mps 604 mmHg 30%
    01:00 +16°C° 0 mm 1 mps 604 mmHg 31%
    02:00 +15°C° 0 mm 1 mps 603 mmHg 32%
    03:00 +14°C° 0 mm 1 mps 603 mmHg 33%
    04:00 +14°C° 0 mm 1 mps 603 mmHg 34%
    05:00 +14°C° 0 mm 1 mps 603 mmHg 35%
    06:00 +13°C° 0 mm 1 mps 602 mmHg 36%
    07:00 +16°C° 0 mm 1 mps 603 mmHg 31%
    08:00 +19°C° 0 mm 1 mps 604 mmHg 27%
    09:00 +21°C° 0 mm 2 mps 605 mmHg 22%
    10:00 +23°C° 0 mm 2 mps 606 mmHg 21%
    11:00 +24°C° 0 mm 2 mps 606 mmHg 19%
    12:00 +26°C° 0 mm 3 mps 606 mmHg 17%
    13:00 +26°C° 0 mm 3 mps 605 mmHg 17%
    14:00 +26°C° 0 mm 3 mps 605 mmHg 16%
    15:00 +27°C° 0 mm 3 mps 605 mmHg 16%
    16:00 +25°C° 0 mm 2 mps 604 mmHg 18%
    17:00 +23°C° 0 mm 2 mps 604 mmHg 21%
    18:00 +22°C° 0 mm 1 mps 603 mmHg 23%
    19:00 +21°C° 0 mm 1 mps 603 mmHg 25%
    20:00 +20°C° 0 mm 1 mps 604 mmHg 27%
    21:00 +19°C° 0 mm 1 mps 604 mmHg 29%
    22:00 +18°C° 0 mm 1 mps 604 mmHg 31%
    23:00 +18°C° 0 mm 1 mps 603 mmHg 34%

    23 September, Saturday

    Time Temperature Precipitation Wind Pressure Humidity
    00:00 +16°C° 0 mm 1 mps 603 mmHg 36%
    01:00 +15°C° 0 mm 1 mps 603 mmHg 38%
    02:00 +15°C° 0 mm 1 mps 603 mmHg 40%
    03:00 +14°C° 0 mm 1 mps 603 mmHg 41%
    04:00 +14°C° 0 mm 1 mps 603 mmHg 43%
    05:00 +13°C° 0 mm 1 mps 603 mmHg 45%
    06:00 +12°C° 0 mm 1 mps 603 mmHg 46%
    07:00 +15°C° 0 mm 1 mps 604 mmHg 40%
    08:00 +18°C° 0 mm 1 mps 605 mmHg 33%
    09:00 +21°C° 0 mm 1 mps 606 mmHg 26%
    10:00 +22°C° 0 mm 1 mps 606 mmHg 24%
    11:00 +23°C° 0 mm 2 mps 606 mmHg 22%
    12:00 +24°C° 0 mm 2 mps 607 mmHg 20%
    13:00 +25°C° 0 mm 2 mps 606 mmHg 19%
    14:00 +25°C° 0 mm 2 mps 606 mmHg 18%
    15:00 +25°C° 0 mm 2 mps 606 mmHg 17%
    16:00 +24°C° 0 mm 2 mps 606 mmHg 20%
    17:00 +21°C° 0 mm 2 mps 605 mmHg 23%
    18:00 +20°C° 0 mm 1 mps 605 mmHg 26%
    19:00 +19°C° 0 mm 1 mps 605 mmHg 29%
    20:00 +18°C° 0 mm 1 mps 605 mmHg 32%
    21:00 +16°C° 0 mm 1 mps 606 mmHg 35%
    22:00 +16°C° 0 mm 1 mps 605 mmHg 38%
    23:00 +15°C° 0 mm 1 mps 605 mmHg 40%

    24 September, Sunday

    Time Temperature Precipitation Wind Pressure Humidity
    00:00 +15°C° 0 mm 1 mps 605 mmHg 43%
    01:00 +14°C° 0 mm 1 mps 605 mmHg 45%
    02:00 +14°C° 0 mm 1 mps 605 mmHg 47%
    03:00 +13°C° 0 mm 1 mps 605 mmHg 49%
    04:00 +13°C° 0 mm 1 mps 605 mmHg 52%
    05:00 +12°C° 0 mm 1 mps 605 mmHg 54%
    06:00 +12°C° 0 mm 1 mps 605 mmHg 56%
    07:00 +14°C° 0 mm 1 mps 606 mmHg 48%
    08:00 +16°C° 0 mm 2 mps 607 mmHg 41%
    09:00 +18°C° 0 mm 2 mps 607 mmHg 34%
    10:00 +20°C° 0 mm 2 mps 608 mmHg 30%
    11:00 +21°C° 0 mm 2 mps 608 mmHg 27%
    12:00 +23°C° 0 mm 2 mps 608 mmHg 24%
    13:00 +24°C° 0 mm 3 mps 608 mmHg 23%
    14:00 +24°C° 0 mm 3 mps 608 mmHg 22%
    15:00 +25°C° 0 mm 3 mps 608 mmHg 21%
    16:00 +23°C° 0 mm 2 mps 607 mmHg 24%
    17:00 +20°C° 0 mm 2 mps 607 mmHg 28%
    18:00 +20°C° 0 mm 1 mps 606 mmHg 31%
    19:00 +19°C° 0 mm 1 mps 606 mmHg 35%
    20:00 +18°C° 0 mm 1 mps 607 mmHg 39%
    21:00 +16°C° 0 mm 1 mps 607 mmHg 43%
    22:00 +15°C° 0 mm 1 mps 606 mmHg 45%
    23:00 +15°C° 0 mm 1 mps 606 mmHg 46%

    25 September, Monday

    Time Temperature Precipitation Wind Pressure Humidity
    00:00 +14°C° 0 mm 1 mps 606 mmHg 48%
    01:00 +13°C° 0 mm 1 mps 606 mmHg 50%
    02:00 +13°C° 0 mm 1 mps 606 mmHg 52%
    03:00 +12°C° 0 mm 1 mps 606 mmHg 53%
    04:00 +12°C° 0 mm 1 mps 606 mmHg 55%
    05:00 +11°C° 0 mm 1 mps 606 mmHg 56%
    06:00 +11°C° 0 mm 1 mps 606 mmHg 58%
    07:00 +13°C° 0 mm 1 mps 607 mmHg 50%
    08:00 +16°C° 0 mm 1 mps 608 mmHg 42%
    09:00 +18°C° 0 mm 2 mps 609 mmHg 34%
    10:00 +19°C° 0 mm 2 mps 609 mmHg 30%
    11:00 +21°C° 0 mm 2 mps 609 mmHg 26%
    12:00 +23°C° 0 mm 2 mps 609 mmHg 22%
    13:00 +23°C° 0 mm 2 mps 609 mmHg 21%
    14:00 +24°C° 0 mm 2 mps 609 mmHg 20%
    15:00 +24°C° 0 mm 3 mps 609 mmHg 19%
    16:00 +23°C° 0 mm 2 mps 608 mmHg 21%
    17:00 +20°C° 0 mm 2 mps 608 mmHg 24%
    18:00 +18°C° 0 mm 2 mps 607 mmHg 26%
    19:00 +17°C° 0 mm 2 mps 607 mmHg 29%
    20:00 +16°C° 0 mm 1 mps 608 mmHg 32%
    21:00 +16°C° 0 mm 1 mps 608 mmHg 35%
    22:00 +15°C° 0 mm 1 mps 608 mmHg 36%
    23:00 +15°C° 0 mm 2 mps 607 mmHg 37%
    Show more